| time (UTC) | temp F | wind direction | speed MPH | gust MPH | rain 1hr in | rain 24hr in | rain mn in | humidity % | barometer mb |
| 20260505054018 | 56 | 197 | 2.0 | 7.0 | 0.00 | 0.07 | 0.00 | 72 | |
| 20260505053018 | 56 | 167 | 1.0 | 7.0 | 0.00 | 0.07 | 0.00 | 71 | |
| 20260505052038 | 56 | 195 | 3.0 | 10.0 | 0.00 | 0.07 | 0.00 | 71 | |
| 20260505051037 | 57 | 213 | 2.0 | 10.0 | 0.00 | 0.07 | 0.00 | 70 | |
| 20260505041021 | 56 | 180 | 2.0 | 8.0 | 0.00 | 0.07 | 0.00 | 69 | |
| 20260505040019 | 57 | 186 | 3.0 | 13.0 | 0.00 | 0.07 | 0.00 | 68 | |
| 20260505035022 | 57 | 187 | 4.0 | 10.0 | 0.00 | 0.07 | 0.07 | 67 | |
| 20260505034019 | 57 | 184 | 3.0 | 9.0 | 0.00 | 0.07 | 0.07 | 66 | |
| 20260505033022 | 58 | 183 | 1.0 | 6.0 | 0.00 | 0.07 | 0.07 | 65 | |
| 20260505032022 | 58 | 182 | 2.0 | 8.0 | 0.00 | 0.07 | 0.07 | 64 | |
| 20260505031017 | 58 | 188 | 2.0 | 9.0 | 0.00 | 0.07 | 0.07 | 63 | |
| 20260505030016 | 58 | 176 | 4.0 | 10.0 | 0.00 | 0.07 | 0.07 | 63 | |
| 20260505025023 | 58 | 177 | 4.0 | 8.0 | 0.00 | 0.07 | 0.07 | 63 | |
| 20260505024015 | 58 | 185 | 2.0 | 8.0 | 0.00 | 0.07 | 0.07 | 63 | |
| 20260505023021 | 58 | 196 | 1.0 | 8.0 | 0.00 | 0.07 | 0.07 | 62 | |
| 20260505022020 | 59 | 202 | 3.0 | 8.0 | 0.00 | 0.07 | 0.07 | 62 | |
| 20260505021019 | 59 | 199 | 4.0 | 10.0 | 0.00 | 0.07 | 0.07 | 61 | |
| 20260505020021 | 59 | 189 | 5.0 | 11.0 | 0.00 | 0.07 | 0.07 | 60 | |
| 20260505015042 | 59 | 188 | 3.0 | 10.0 | 0.00 | 0.07 | 0.07 | 61 | |
| 20260505014043 | 59 | 174 | 2.0 | 7.0 | 0.00 | 0.07 | 0.07 | 61 | |
| 20260505013020 | 60 | 212 | 2.0 | 5.0 | 0.00 | 0.07 | 0.07 | 59 | |
| 20260505012024 | 60 | 209 | 2.0 | 14.0 | 0.00 | 0.07 | 0.07 | 58 | |
| 20260505011021 | 60 | 194 | 1.0 | 12.0 | 0.00 | 0.07 | 0.07 | 58 | |
| 20260505010018 | 61 | 191 | 5.0 | 12.0 | 0.00 | 0.07 | 0.07 | 58 | |
| 20260505005037 | 61 | 196 | 6.0 | 18.0 | 0.00 | 0.07 | 0.07 | 58 | |
| 20260505004021 | 61 | 180 | 4.0 | 12.0 | 0.00 | 0.07 | 0.07 | 58 | |
| 20260505003038 | 61 | 183 | 4.0 | 12.0 | 0.00 | 0.07 | 0.07 | 59 | |
| 20260505002019 | 61 | 184 | 5.0 | 17.0 | 0.00 | 0.07 | 0.07 | 59 | |
| 20260505001037 | 61 | 193 | 4.0 | 16.0 | 0.00 | 0.07 | 0.07 | 59 | |
| 20260505000016 | 61 | 176 | 4.0 | 17.0 | 0.00 | 0.07 | 0.07 | 58 | |
| 20260504235017 | 62 | 176 | 4.0 | 21.0 | 0.00 | 0.07 | 0.07 | 57 | |
| 20260504234021 | 63 | 175 | 4.0 | 8.0 | 0.00 | 0.07 | 0.07 | 55 | |
| 20260504233018 | 65 | 175 | 2.0 | 22.0 | 0.00 | 0.07 | 0.07 | 51 | |
| 20260504232017 | 65 | 183 | 6.0 | 19.0 | 0.00 | 0.07 | 0.07 | 50 | |
| 20260504231017 | 65 | 171 | 5.0 | 17.0 | 0.00 | 0.07 | 0.07 | 51 | |
| 20260504230016 | 66 | 173 | 2.0 | 10.0 | 0.00 | 0.07 | 0.07 | 51 | |
| 20260504225020 | 68 | 131 | 3.0 | 12.0 | 0.00 | 0.07 | 0.07 | 48 | |
| 20260504224043 | 69 | 171 | 3.0 | 12.0 | 0.00 | 0.07 | 0.07 | 45 | |
| 20260504223016 | 72 | 167 | 4.0 | 12.0 | 0.00 | 0.07 | 0.07 | 37 | |
| 20260504222020 | 72 | 195 | 6.0 | 20.0 | 0.00 | 0.07 | 0.07 | 35 | |
| 20260504221017 | 72 | 204 | 3.0 | 14.0 | 0.00 | 0.07 | 0.07 | 34 | |
| 20260504220016 | 72 | 200 | 4.0 | 18.0 | 0.00 | 0.07 | 0.07 | 34 | |
| 20260504215020 | 73 | 191 | 5.0 | 19.0 | 0.00 | 0.07 | 0.07 | 34 | |
| 20260504214045 | 73 | 177 | 4.0 | 15.0 | 0.00 | 0.07 | 0.07 | 33 | |
| 20260504213232 | 73 | 202 | 7.0 | 16.0 | 0.00 | 0.07 | 0.07 | 33 | |
| 20260504211518 | 72 | 197 | 4.0 | 14.0 | 0.00 | 0.07 | 0.07 | 33 | |
| 20260504210521 | 72 | 214 | 3.0 | 21.0 | 0.00 | 0.07 | 0.07 | 33 | |
| 20260504205519 | 73 | 221 | 8.0 | 17.0 | 0.00 | 0.07 | 0.07 | 31 | |
| 20260504204518 | 74 | 214 | 5.0 | 19.0 | 0.00 | 0.07 | 0.07 | 31 | |
| 20260504203519 | 74 | 207 | 6.0 | 19.0 | 0.00 | 0.07 | 0.07 | 31 | |
| 20260504202522 | 73 | 201 | 8.0 | 16.0 | 0.00 | 0.07 | 0.07 | 30 | |
| 20260504201540 | 74 | 251 | 5.0 | 16.0 | 0.00 | 0.07 | 0.07 | 30 | |
| 20260504200519 | 74 | 228 | 3.0 | 18.0 | 0.00 | 0.07 | 0.07 | 31 | |
| 20260504195543 | 73 | 219 | 7.0 | 18.0 | 0.07 | 0.07 | 0.07 | 31 | |
| 20260504194520 | 73 | 194 | 7.0 | 15.0 | 0.07 | 0.07 | 0.07 | 31 | |
| 20260504193521 | 72 | 209 | 4.0 | 24.0 | 0.07 | 0.07 | 0.07 | 31 | |
| 20260504192520 | 72 | 206 | 7.0 | 25.0 | 0.07 | 0.07 | 0.07 | 32 | |
| 20260504191522 | 72 | 199 | 8.0 | 25.0 | 0.07 | 0.07 | 0.07 | 31 | |
| 20260504190559 | 72 | 236 | 6.0 | 23.0 | 0.07 | 0.07 | 0.07 | 32 |